Location: Edoum�
(0.9447°N, 10.6482°E)
Time: 22:19:28
(UTC+00:00)

Ariane 3 Deb - Visible Passes

Search period start: 01 October 2020 00:00
Search period end: 11 October 2020 00:00
Orbit: 228 x 18437 km, 6.8° (Epoch: 01 October)

Date Brightness Start Highest point End Pass type
(mag) Time Alt. Az. Time Alt. Az. Time Alt. Az.
02 Oct 4.6 03:00:07 54° NW 03:02:12 66° N 03:53:27 10° E visible
02 Oct 4.1 18:21:08 10° W 18:53:45 70° S 18:55:37 51° ESE visible
04 Oct 5.5 03:59:09 21° WNW 04:07:07 74° N 06:45:20 10° E visible
04 Oct 4.8 19:42:17 10° W 19:54:24 44° WSW 19:54:24 44° WSW visible
05 Oct 5.6 01:45:08 35° ENE 01:45:08 35° ENE 01:58:06 10° E visible
05 Oct 5.6 15:20:46 10° W 17:31:34 72° S 17:40:10 10° E visible
06 Oct 6.4 20:51:38 10° W 20:52:25 12° W 20:52:25 12° W visible
07 Oct 4.6 02:43:03 62° NNW 02:43:50 64° N 03:22:54 10° E visible
07 Oct 4.4 17:52:17 10° W 18:34:47 74° S 18:37:56 38° ESE visible
09 Oct 5.2 03:40:12 29° WNW 03:46:11 73° N 05:44:52 10° E visible
09 Oct 4.2 19:17:18 10° W 19:34:49 65° WSW 19:34:49 65° WSW visible
10 Oct 6.1 01:25:21 25° ENE 01:25:21 25° ENE 01:33:17 10° E visible
